Home > Weather > Florianópolis > Past weeks

Flag for Brazil Past Weather in Florianópolis, Santa Catarina, Brazil — Yesterday and Last 2 Weeks

Now
50 °F

Sunny.


Feels Like: 48 °F
Forecast: 48 / 61 °F
Wind: 6 mph from West

Location: Florianopolis Aeroporto

Current Time: Jul 29, 2016 at 7:29:20 AM

Latest Report: Jul 29, 2016 at 7:00 AM


Visibility: 10 mi

Pressure: 30.30 "Hg

Humidity: 100%

Dew Point: 50 °F

Location of FlorianópolisLocation

Past Weather in Florianópolis — Graph

°F

Florianópolis Temperature Yesterday

Maximum temperature yesterday: 61 °F (at 11:00 AM)
Minimum temperature yesterday: 52 °F (at 7:00 AM)
Average temperature yesterday: 56 °F

High & Low Weather Summary for the Past Weeks

 TemperatureHumidityPressure
High77 °F (Jul 24, 1:00 PM)100% (Jul 14, 6:00 AM)30.33 "Hg (Jul 14, 6:00 AM)
Low43 °F (Jul 16, 12:00 AM)45% (Jul 17, 1:00 PM)29.77 "Hg (Jul 15, 7:00 AM)
Average58 °F84%30.11 "Hg
* Reported Jul 14 6:00 AM — Jul 29 6:00 AM, Florianópolis, Weather by CustomWeather, © 2016

Note: Actual official high and low records may vary slightly from our data, if they occured in-between our weather recording intervals... More about our weather records

Advertising

Florianópolis Weather History for the Previous 24 Hours

Scroll right to see more
 ConditionsComfort  
Time TempWeatherWind HumidityBarometerVisibility
6:00 AM
Fri, Jul 29
52 °FPartly sunny.7 mph77%30.30 "HgN/A
5:00 AM52 °FPassing clouds.6 mph77%30.30 "HgN/A
4:00 AM52 °FPassing clouds.6 mph77%30.30 "HgN/A
3:00 AM54 °FPassing clouds.6 mph77%30.30 "HgN/A
2:00 AM54 °FPassing clouds.8 mph77%30.30 "HgN/A
1:00 AM54 °FPassing clouds.6 mph77%30.30 "HgN/A
12:00 AM54 °FPassing clouds.7 mph77%30.30 "HgN/A
11:00 PM
Thu, Jul 28
55 °FPassing clouds.8 mph77%30.33 "HgN/A
10:00 PM55 °FPartly cloudy.8 mph77%30.30 "HgN/A
9:00 PM55 °FPassing clouds.8 mph77%30.30 "HgN/A
8:00 PM55 °FPassing clouds.7 mph82%30.30 "HgN/A
7:00 PM55 °FPassing clouds.8 mph82%30.27 "HgN/A
6:00 PM57 °FPassing clouds.7 mph77%30.27 "Hg6 mi
5:00 PM57 °FPassing clouds.8 mph77%30.27 "HgN/A
4:00 PM59 °FPartly sunny.10 mph72%30.27 "HgN/A
3:00 PM59 °FPartly sunny.12 mph72%30.24 "HgN/A
2:00 PM61 °FPartly sunny.10 mph68%30.24 "HgN/A
1:00 PM61 °FScattered clouds.13 mph72%30.27 "HgN/A
12:00 PM61 °FPassing clouds.6 mph68%30.27 "HgN/A
11:00 AM61 °FSunny.5 mph68%30.30 "Hg10 mi
10:00 AM59 °FSunny.3 mph72%30.30 "Hg10 mi
9:00 AM55 °FSunny.5 mph77%30.27 "Hg10 mi
8:00 AM54 °FSunny.No wind82%30.27 "Hg10 mi
7:00 AM52 °FPassing clouds.3 mph82%30.27 "HgN/A
Weather by CustomWeather, © 2016

See weather overviewHow to use our weather pages